contact:dominique.lefevre@mio.osupytheas.fr, maurice.libes@osupytheas.fr, didier.mallarino@osupytheas.fr
Project:EMSO http://www.emso-fr.org/EMSO-France
Depth: 2436.0 m
Title:EMSO Ligure Ouest : Data MII capteur MICROCAT
DateTime_Computer,Latitude,Longitude,Temperature,Conductivity,Pressure,DateTime_Instrument
DateTime_Computer,Latitude,Longitude,degC,S m-1,dbar,DateTime_Instrument
2019-12-21T00:02:40Z,42.805,6.029,13.2969,4.59998,2469.937,2019-12-21T02:03:11Z
2019-12-21T00:05:43Z,42.805,6.029,13.2972,4.60009,2469.914,2019-12-21T02:06:14Z
2019-12-21T00:08:47Z,42.805,6.029,13.2977,4.60005,2469.937,2019-12-21T02:09:17Z
2019-12-21T00:11:50Z,42.805,6.029,13.2970,4.59989,2469.923,2019-12-21T02:12:20Z
2019-12-21T00:14:53Z,42.805,6.029,13.2974,4.59995,2469.937,2019-12-21T02:15:23Z
2019-12-21T00:17:56Z,42.805,6.029,13.2978,4.59997,2469.937,2019-12-21T02:18:27Z
2019-12-21T00:20:59Z,42.805,6.029,13.2974,4.60003,2469.947,2019-12-21T02:21:30Z
2019-12-21T00:24:03Z,42.805,6.029,13.2974,4.59996,2469.923,2019-12-21T02:24:33Z
2019-12-21T00:27:06Z,42.805,6.029,13.2974,4.59999,2469.937,2019-12-21T02:27:37Z
2019-12-21T00:30:09Z,42.805,6.029,13.2971,4.59999,2469.923,2019-12-21T02:30:40Z
2019-12-21T00:33:13Z,42.805,6.029,13.2969,4.59978,2469.947,2019-12-21T02:33:43Z
2019-12-21T00:36:16Z,42.805,6.029,13.2972,4.59977,2469.947,2019-12-21T02:36:46Z
2019-12-21T00:39:19Z,42.805,6.029,13.2973,4.59983,2469.923,2019-12-21T02:39:49Z
2019-12-21T00:42:22Z,42.805,6.029,13.2967,4.59980,2469.96,2019-12-21T02:42:53Z
2019-12-21T00:45:25Z,42.805,6.029,13.2983,4.59986,2469.947,2019-12-21T02:45:56Z
2019-12-21T00:48:29Z,42.805,6.029,13.2966,4.59997,2469.947,2019-12-21T02:48:59Z
2019-12-21T00:51:32Z,42.805,6.029,13.2975,4.60017,2469.947,2019-12-21T02:52:02Z
2019-12-21T00:54:35Z,42.805,6.029,13.2973,4.60032,2469.947,2019-12-21T02:55:06Z
2019-12-21T00:57:38Z,42.805,6.029,13.2985,4.60010,2469.947,2019-12-21T02:58:09Z
2019-12-21T01:00:42Z,42.805,6.029,13.2970,4.60001,2469.96,2019-12-21T03:01:12Z
2019-12-21T01:03:45Z,42.805,6.029,13.2969,4.60001,2469.96,2019-12-21T03:04:15Z
2019-12-21T01:06:48Z,42.805,6.029,13.2968,4.60017,2469.96,2019-12-21T03:07:19Z
2019-12-21T01:09:51Z,42.805,6.029,13.2964,4.60001,2469.947,2019-12-21T03:10:22Z
2019-12-21T01:12:55Z,42.805,6.029,13.2976,4.60018,2469.984,2019-12-21T03:13:25Z
2019-12-21T01:15:58Z,42.805,6.029,13.2984,4.60001,2469.96,2019-12-21T03:16:28Z
2019-12-21T01:19:01Z,42.805,6.029,13.2971,4.59998,2469.96,2019-12-21T03:19:31Z
2019-12-21T01:22:04Z,42.805,6.029,13.2973,4.60017,2469.947,2019-12-21T03:22:35Z
2019-12-21T01:25:07Z,42.805,6.029,13.2968,4.60002,2469.993,2019-12-21T03:25:38Z
2019-12-21T01:28:11Z,42.805,6.029,13.2974,4.60000,2469.97,2019-12-21T03:28:41Z
2019-12-21T01:31:14Z,42.805,6.029,13.2971,4.59991,2469.947,2019-12-21T03:31:45Z
2019-12-21T01:34:17Z,42.805,6.029,13.2973,4.60013,2469.984,2019-12-21T03:34:48Z
2019-12-21T01:37:21Z,42.805,6.029,13.2971,4.60013,2469.993,2019-12-21T03:37:51Z
2019-12-21T01:40:24Z,42.805,6.029,13.2968,4.59988,2469.96,2019-12-21T03:40:54Z
2019-12-21T01:43:27Z,42.805,6.029,13.2974,4.60010,2469.97,2019-12-21T03:43:58Z
2019-12-21T01:46:30Z,42.805,6.029,13.2974,4.59998,2469.984,2019-12-21T03:47:01Z
2019-12-21T01:49:33Z,42.805,6.029,13.2970,4.59991,2469.956,2019-12-21T03:50:04Z
2019-12-21T01:52:37Z,42.805,6.029,13.2974,4.59997,2469.97,2019-12-21T03:53:07Z
2019-12-21T01:55:40Z,42.805,6.029,13.2976,4.60000,2469.96,2019-12-21T03:56:10Z
2019-12-21T01:58:43Z,42.805,6.029,13.2976,4.60006,2469.947,2019-12-21T03:59:14Z
2019-12-21T02:01:46Z,42.805,6.029,13.2981,4.59999,2469.97,2019-12-21T04:02:17Z
2019-12-21T02:04:50Z,42.805,6.029,13.2972,4.59992,2469.984,2019-12-21T04:05:20Z
2019-12-21T02:07:53Z,42.805,6.029,13.2989,4.59990,2470.017,2019-12-21T04:08:23Z
2019-12-21T02:10:56Z,42.805,6.029,13.2971,4.60011,2470.007,2019-12-21T04:11:26Z
2019-12-21T02:13:59Z,42.805,6.029,13.2972,4.60002,2469.97,2019-12-21T04:14:30Z
2019-12-21T02:17:02Z,42.805,6.029,13.2971,4.59986,2469.993,2019-12-21T04:17:33Z
2019-12-21T02:20:06Z,42.805,6.029,13.2970,4.60004,2470.007,2019-12-21T04:20:36Z
2019-12-21T02:23:09Z,42.805,6.029,13.2970,4.59991,2470.03,2019-12-21T04:23:39Z
2019-12-21T02:26:12Z,42.805,6.029,13.2976,4.59997,2469.984,2019-12-21T04:26:43Z
2019-12-21T02:29:15Z,42.805,6.029,13.2975,4.59995,2470.007,2019-12-21T04:29:46Z
2019-12-21T02:32:19Z,42.805,6.029,13.2969,4.59992,2469.993,2019-12-21T04:32:49Z
2019-12-21T02:35:22Z,42.805,6.029,13.2971,4.59997,2469.993,2019-12-21T04:35:52Z
2019-12-21T02:38:25Z,42.805,6.029,13.2967,4.59997,2469.993,2019-12-21T04:38:56Z
2019-12-21T02:41:28Z,42.805,6.029,13.2968,4.59975,2469.993,2019-12-21T04:41:59Z
2019-12-21T02:44:32Z,42.805,6.029,13.2974,4.59990,2470.007,2019-12-21T04:45:02Z
2019-12-21T02:47:35Z,42.805,6.029,13.2972,4.59996,2469.97,2019-12-21T04:48:05Z
2019-12-21T02:50:38Z,42.805,6.029,13.2974,4.60000,2470.03,2019-12-21T04:51:09Z
2019-12-21T02:53:41Z,42.805,6.029,13.2967,4.59986,2470.017,2019-12-21T04:54:12Z
2019-12-21T02:56:45Z,42.805,6.029,13.2968,4.59999,2470.03,2019-12-21T04:57:15Z
2019-12-21T02:59:48Z,42.805,6.029,13.2972,4.59997,2469.993,2019-12-21T05:00:18Z
2019-12-21T03:02:51Z,42.805,6.029,13.2967,4.59974,2469.993,2019-12-21T05:03:21Z
2019-12-21T03:05:54Z,42.805,6.029,13.2976,4.59991,2470.007,2019-12-21T05:06:25Z
2019-12-21T03:08:57Z,42.805,6.029,13.2982,4.60003,2470.007,2019-12-21T05:09:28Z
2019-12-21T03:12:01Z,42.805,6.029,13.2971,4.59980,2470.007,2019-12-21T05:12:31Z
2019-12-21T03:15:04Z,42.805,6.029,13.2972,4.59990,2470.007,2019-12-21T05:15:34Z
2019-12-21T03:18:07Z,42.805,6.029,13.2972,4.59983,2469.993,2019-12-21T05:18:38Z
2019-12-21T03:21:10Z,42.805,6.029,13.2968,4.59982,2469.993,2019-12-21T05:21:41Z
2019-12-21T03:24:14Z,42.805,6.029,13.2971,4.59983,2470.007,2019-12-21T05:24:44Z
2019-12-21T03:27:17Z,42.805,6.029,13.2968,4.59981,2470.03,2019-12-21T05:27:47Z
2019-12-21T03:30:20Z,42.805,6.029,13.2972,4.59988,2470.04,2019-12-21T05:30:51Z
2019-12-21T03:33:23Z,42.805,6.029,13.2976,4.59981,2469.993,2019-12-21T05:33:54Z
2019-12-21T03:36:27Z,42.805,6.029,13.2968,4.59983,2469.993,2019-12-21T05:36:57Z
2019-12-21T03:39:30Z,42.805,6.029,13.2968,4.59983,2470.03,2019-12-21T05:40:00Z
2019-12-21T03:42:33Z,42.805,6.029,13.2968,4.59981,2469.993,2019-12-21T05:43:04Z
2019-12-21T03:45:36Z,42.805,6.029,13.2977,4.59996,2470.03,2019-12-21T05:46:07Z
2019-12-21T03:48:39Z,42.805,6.029,13.2973,4.59980,2469.97,2019-12-21T05:49:10Z
2019-12-21T03:51:43Z,42.805,6.029,13.2972,4.59983,2469.97,2019-12-21T05:52:13Z
2019-12-21T03:54:46Z,42.805,6.029,13.2972,4.59991,2469.96,2019-12-21T05:55:16Z
2019-12-21T03:57:49Z,42.805,6.029,13.2970,4.59982,2470.017,2019-12-21T05:58:20Z
2019-12-21T04:00:52Z,42.805,6.029,13.2972,4.59986,2470.007,2019-12-21T06:01:23Z
2019-12-21T04:03:55Z,42.805,6.029,13.2970,4.59981,2469.993,2019-12-21T06:04:26Z
2019-12-21T04:06:59Z,42.805,6.029,13.2971,4.59977,2469.993,2019-12-21T06:07:29Z
2019-12-21T04:10:02Z,42.805,6.029,13.2974,4.59973,2469.993,2019-12-21T06:10:32Z
2019-12-21T04:13:05Z,42.805,6.029,13.2971,4.59988,2470.007,2019-12-21T06:13:36Z
2019-12-21T04:16:08Z,42.805,6.029,13.2967,4.59986,2470.007,2019-12-21T06:16:39Z
2019-12-21T04:19:12Z,42.805,6.029,13.2968,4.59981,2469.993,2019-12-21T06:19:42Z
2019-12-21T04:22:15Z,42.805,6.029,13.2969,4.59983,2470.017,2019-12-21T06:22:45Z
2019-12-21T04:25:18Z,42.805,6.029,13.2972,4.59982,2470.017,2019-12-21T06:25:48Z
2019-12-21T04:28:21Z,42.805,6.029,13.2971,4.59982,2469.993,2019-12-21T06:28:52Z
2019-12-21T04:31:25Z,42.805,6.029,13.2972,4.59983,2470.017,2019-12-21T06:31:56Z
2019-12-21T04:34:29Z,42.805,6.029,13.2978,4.59988,2469.984,2019-12-21T06:34:59Z
2019-12-21T04:37:32Z,42.805,6.029,13.2971,4.59984,2469.97,2019-12-21T06:38:02Z
2019-12-21T04:40:35Z,42.805,6.029,13.2971,4.59985,2469.947,2019-12-21T06:41:05Z
2019-12-21T04:43:38Z,42.805,6.029,13.2964,4.59985,2469.97,2019-12-21T06:44:09Z
2019-12-21T04:46:41Z,42.805,6.029,13.2968,4.59981,2469.993,2019-12-21T06:47:12Z
2019-12-21T04:49:45Z,42.805,6.029,13.2969,4.59980,2469.993,2019-12-21T06:50:15Z
2019-12-21T04:52:48Z,42.805,6.029,13.2967,4.59978,2469.993,2019-12-21T06:53:18Z
2019-12-21T04:55:51Z,42.805,6.029,13.2970,4.59981,2469.984,2019-12-21T06:56:22Z
2019-12-21T04:58:55Z,42.805,6.029,13.2974,4.59982,2470.007,2019-12-21T06:59:25Z
2019-12-21T05:01:58Z,42.805,6.029,13.2967,4.59988,2469.97,2019-12-21T07:02:28Z
2019-12-21T05:05:01Z,42.805,6.029,13.2972,4.59991,2469.97,2019-12-21T07:05:32Z
2019-12-21T05:08:04Z,42.805,6.029,13.2971,4.59996,2469.984,2019-12-21T07:08:35Z
2019-12-21T05:11:08Z,42.805,6.029,13.2971,4.59986,2469.947,2019-12-21T07:11:38Z
2019-12-21T05:14:11Z,42.805,6.029,13.2968,4.59978,2470.007,2019-12-21T07:14:41Z
2019-12-21T05:17:14Z,42.805,6.029,13.2972,4.59982,2469.96,2019-12-21T07:17:45Z
2019-12-21T05:20:17Z,42.805,6.029,13.2974,4.59986,2469.993,2019-12-21T07:20:48Z
2019-12-21T05:23:21Z,42.805,6.029,13.2968,4.59993,2469.993,2019-12-21T07:23:51Z
2019-12-21T05:26:24Z,42.805,6.029,13.2967,4.59980,2470.007,2019-12-21T07:26:54Z
2019-12-21T05:29:27Z,42.805,6.029,13.2971,4.59981,2470.017,2019-12-21T07:29:57Z
2019-12-21T05:32:30Z,42.805,6.029,13.2971,4.59976,2470.007,2019-12-21T07:33:01Z
2019-12-21T05:35:33Z,42.805,6.029,13.2971,4.59977,2469.993,2019-12-21T07:36:04Z
2019-12-21T05:38:37Z,42.805,6.029,13.2967,4.59977,2469.984,2019-12-21T07:39:07Z
2019-12-21T05:41:40Z,42.805,6.029,13.2971,4.59978,2469.97,2019-12-21T07:42:10Z
2019-12-21T05:44:43Z,42.805,6.029,13.2968,4.59970,2469.993,2019-12-21T07:45:14Z
2019-12-21T05:47:46Z,42.805,6.029,13.2969,4.59976,2469.947,2019-12-21T07:48:17Z
2019-12-21T05:50:49Z,42.805,6.029,13.2969,4.59976,2469.97,2019-12-21T07:51:20Z
2019-12-21T05:53:53Z,42.805,6.029,13.2971,4.59983,2469.993,2019-12-21T07:54:23Z
2019-12-21T05:56:56Z,42.805,6.029,13.2967,4.59975,2469.947,2019-12-21T07:57:27Z
2019-12-21T06:00:00Z,42.805,6.029,13.2972,4.59976,2470.007,2019-12-21T08:00:30Z
2019-12-21T06:03:03Z,42.805,6.029,13.2966,4.59975,2469.993,2019-12-21T08:03:33Z
2019-12-21T06:06:06Z,42.805,6.029,13.2968,4.59975,2469.96,2019-12-21T08:06:36Z
2019-12-21T06:09:09Z,42.805,6.029,13.2961,4.59969,2469.923,2019-12-21T08:09:40Z
2019-12-21T06:12:12Z,42.805,6.029,13.2967,4.59976,2469.97,2019-12-21T08:12:43Z
2019-12-21T06:15:16Z,42.805,6.029,13.2971,4.59981,2469.923,2019-12-21T08:15:46Z
2019-12-21T06:18:19Z,42.805,6.029,13.2967,4.59978,2469.947,2019-12-21T08:18:49Z
2019-12-21T06:21:22Z,42.805,6.029,13.2968,4.59976,2469.947,2019-12-21T08:21:53Z
2019-12-21T06:24:25Z,42.805,6.029,13.2968,4.59973,2469.947,2019-12-21T08:24:56Z
2019-12-21T06:27:28Z,42.805,6.029,13.2967,4.59971,2469.96,2019-12-21T08:27:59Z
2019-12-21T06:30:32Z,42.805,6.029,13.2967,4.59970,2469.96,2019-12-21T08:31:02Z
2019-12-21T06:33:35Z,42.805,6.029,13.2964,4.59976,2469.923,2019-12-21T08:34:06Z
2019-12-21T06:36:38Z,42.805,6.029,13.2967,4.59979,2469.96,2019-12-21T08:37:09Z
2019-12-21T06:39:41Z,42.805,6.029,13.2969,4.59972,2469.9,2019-12-21T08:40:12Z
2019-12-21T06:42:45Z,42.805,6.029,13.2969,4.59981,2469.933,2019-12-21T08:43:15Z
2019-12-21T06:45:48Z,42.805,6.029,13.2965,4.59973,2469.937,2019-12-21T08:46:18Z
2019-12-21T06:48:51Z,42.805,6.029,13.2967,4.59982,2469.947,2019-12-21T08:49:22Z
2019-12-21T06:51:54Z,42.805,6.029,13.2965,4.59982,2469.947,2019-12-21T08:52:25Z
2019-12-21T06:54:58Z,42.805,6.029,13.2968,4.59986,2469.97,2019-12-21T08:55:28Z
2019-12-21T06:58:01Z,42.805,6.029,13.2968,4.59971,2469.947,2019-12-21T08:58:32Z
2019-12-21T07:01:04Z,42.805,6.029,13.2964,4.59976,2469.947,2019-12-21T09:01:35Z
2019-12-21T07:04:07Z,42.805,6.029,13.2968,4.59974,2469.96,2019-12-21T09:04:38Z
2019-12-21T07:07:11Z,42.805,6.029,13.2963,4.59975,2469.923,2019-12-21T09:07:41Z
2019-12-21T07:10:14Z,42.805,6.029,13.2971,4.59975,2469.876,2019-12-21T09:10:44Z
2019-12-21T07:13:17Z,42.805,6.029,13.2968,4.59990,2469.947,2019-12-21T09:13:48Z
2019-12-21T07:16:20Z,42.805,6.029,13.2964,4.59972,2469.96,2019-12-21T09:16:51Z
2019-12-21T07:19:23Z,42.805,6.029,13.2966,4.59973,2469.867,2019-12-21T09:19:54Z
2019-12-21T07:22:27Z,42.805,6.029,13.2969,4.59996,2469.96,2019-12-21T09:22:57Z
2019-12-21T07:25:30Z,42.805,6.029,13.2969,4.59988,2469.914,2019-12-21T09:26:01Z
2019-12-21T07:28:33Z,42.805,6.029,13.2969,4.59978,2469.923,2019-12-21T09:29:04Z
2019-12-21T07:31:36Z,42.805,6.029,13.2967,4.59990,2469.923,2019-12-21T09:32:07Z
2019-12-21T07:34:40Z,42.805,6.029,13.2967,4.59973,2469.914,2019-12-21T09:35:10Z
2019-12-21T07:37:43Z,42.805,6.029,13.2968,4.59973,2469.909,2019-12-21T09:38:13Z
2019-12-21T07:40:46Z,42.805,6.029,13.2964,4.59968,2469.937,2019-12-21T09:41:17Z
2019-12-21T07:43:49Z,42.805,6.029,13.2967,4.59975,2469.914,2019-12-21T09:44:20Z
2019-12-21T07:46:53Z,42.805,6.029,13.2969,4.59986,2469.96,2019-12-21T09:47:23Z
2019-12-21T07:49:56Z,42.805,6.029,13.2965,4.59980,2469.937,2019-12-21T09:50:26Z
2019-12-21T07:52:59Z,42.805,6.029,13.2973,4.59987,2469.947,2019-12-21T09:53:29Z
2019-12-21T07:56:02Z,42.805,6.029,13.2966,4.59976,2469.923,2019-12-21T09:56:33Z
2019-12-21T07:59:05Z,42.805,6.029,13.2967,4.59987,2469.96,2019-12-21T09:59:36Z
2019-12-21T08:02:09Z,42.805,6.029,13.2968,4.59974,2469.923,2019-12-21T10:02:39Z
2019-12-21T08:05:12Z,42.805,6.029,13.2970,4.59973,2469.914,2019-12-21T10:05:42Z
2019-12-21T08:08:15Z,42.805,6.029,13.2964,4.59971,2469.9,2019-12-21T10:08:46Z
2019-12-21T08:11:18Z,42.805,6.029,13.2972,4.59971,2469.923,2019-12-21T10:11:49Z
2019-12-21T08:14:22Z,42.805,6.029,13.2965,4.59983,2469.909,2019-12-21T10:14:52Z
2019-12-21T08:17:25Z,42.805,6.029,13.2968,4.59973,2469.923,2019-12-21T10:17:55Z
2019-12-21T08:20:28Z,42.805,6.029,13.2964,4.59976,2469.923,2019-12-21T10:20:59Z
2019-12-21T08:23:31Z,42.805,6.029,13.2971,4.59979,2469.947,2019-12-21T10:24:02Z
2019-12-21T08:26:35Z,42.805,6.029,13.2969,4.59976,2469.947,2019-12-21T10:27:05Z
2019-12-21T08:29:38Z,42.805,6.029,13.2971,4.59980,2469.937,2019-12-21T10:30:08Z
2019-12-21T08:32:41Z,42.805,6.029,13.2970,4.59981,2469.937,2019-12-21T10:33:12Z
2019-12-21T08:35:44Z,42.805,6.029,13.2967,4.59975,2469.947,2019-12-21T10:36:15Z
2019-12-21T08:38:48Z,42.805,6.029,13.2968,4.59978,2469.937,2019-12-21T10:39:18Z
2019-12-21T08:41:51Z,42.805,6.029,13.2966,4.59981,2469.9,2019-12-21T10:42:21Z
2019-12-21T08:44:54Z,42.805,6.029,13.2970,4.59989,2469.923,2019-12-21T10:45:25Z
2019-12-21T08:47:57Z,42.805,6.029,13.2964,4.59981,2469.923,2019-12-21T10:48:28Z
2019-12-21T08:51:01Z,42.805,6.029,13.2968,4.59973,2469.96,2019-12-21T10:51:31Z
2019-12-21T08:54:04Z,42.805,6.029,13.2971,4.59990,2469.96,2019-12-21T10:54:34Z
2019-12-21T08:57:07Z,42.805,6.029,13.2968,4.59973,2469.914,2019-12-21T10:57:38Z
2019-12-21T09:00:10Z,42.805,6.029,13.2968,4.59978,2469.937,2019-12-21T11:00:41Z
2019-12-21T09:03:13Z,42.805,6.029,13.2973,4.59979,2469.914,2019-12-21T11:03:44Z
2019-12-21T09:06:17Z,42.805,6.029,13.2970,4.59973,2469.937,2019-12-21T11:06:47Z
2019-12-21T09:09:20Z,42.805,6.029,13.2966,4.59975,2469.947,2019-12-21T11:09:50Z
2019-12-21T09:12:23Z,42.805,6.029,13.2967,4.59976,2469.96,2019-12-21T11:12:54Z
2019-12-21T09:15:26Z,42.805,6.029,13.2960,4.59980,2469.914,2019-12-21T11:15:57Z
2019-12-21T09:18:30Z,42.805,6.029,13.2967,4.59974,2469.923,2019-12-21T11:19:00Z
2019-12-21T09:21:33Z,42.805,6.029,13.2967,4.59986,2469.937,2019-12-21T11:22:03Z
2019-12-21T09:24:36Z,42.805,6.029,13.2970,4.59981,2469.947,2019-12-21T11:25:07Z
2019-12-21T09:27:39Z,42.805,6.029,13.2966,4.59978,2469.937,2019-12-21T11:28:10Z
2019-12-21T09:30:42Z,42.805,6.029,13.2970,4.59973,2469.914,2019-12-21T11:31:13Z
2019-12-21T09:33:46Z,42.805,6.029,13.2968,4.59972,2469.89,2019-12-21T11:34:16Z
2019-12-21T09:36:49Z,42.805,6.029,13.2966,4.59980,2469.96,2019-12-21T11:37:20Z
2019-12-21T09:39:52Z,42.805,6.029,13.2969,4.59986,2469.96,2019-12-21T11:40:23Z
2019-12-21T09:42:56Z,42.805,6.029,13.2967,4.59981,2469.96,2019-12-21T11:43:26Z
2019-12-21T09:45:59Z,42.805,6.029,13.2964,4.59974,2469.923,2019-12-21T11:46:29Z
2019-12-21T09:49:02Z,42.805,6.029,13.2967,4.59978,2469.947,2019-12-21T11:49:33Z
2019-12-21T09:52:05Z,42.805,6.029,13.2967,4.59979,2469.947,2019-12-21T11:52:36Z
2019-12-21T09:55:08Z,42.805,6.029,13.2975,4.59978,2469.923,2019-12-21T11:55:39Z
2019-12-21T09:58:12Z,42.805,6.029,13.2966,4.59996,2469.923,2019-12-21T11:58:42Z
2019-12-21T10:01:15Z,42.805,6.029,13.2967,4.59978,2469.923,2019-12-21T12:01:45Z
2019-12-21T10:04:18Z,42.805,6.029,13.2977,4.59997,2469.96,2019-12-21T12:04:49Z
2019-12-21T10:07:21Z,42.805,6.029,13.2968,4.59986,2469.947,2019-12-21T12:07:52Z
2019-12-21T10:10:25Z,42.805,6.029,13.2969,4.59981,2469.937,2019-12-21T12:10:55Z
2019-12-21T10:13:28Z,42.805,6.029,13.2970,4.59979,2469.97,2019-12-21T12:13:58Z
2019-12-21T10:16:31Z,42.805,6.029,13.2969,4.59986,2469.97,2019-12-21T12:17:01Z
2019-12-21T10:19:34Z,42.805,6.029,13.2974,4.59975,2469.923,2019-12-21T12:20:05Z
2019-12-21T10:22:37Z,42.805,6.029,13.2966,4.59976,2469.96,2019-12-21T12:23:08Z
2019-12-21T10:25:41Z,42.805,6.029,13.2968,4.59973,2469.937,2019-12-21T12:26:11Z
2019-12-21T10:28:44Z,42.805,6.029,13.2968,4.59994,2469.947,2019-12-21T12:29:14Z
2019-12-21T10:31:47Z,42.805,6.029,13.2969,4.59994,2469.947,2019-12-21T12:32:18Z
2019-12-21T10:34:50Z,42.805,6.029,13.2966,4.59977,2469.97,2019-12-21T12:35:21Z
2019-12-21T10:37:54Z,42.805,6.029,13.2972,4.59993,2469.97,2019-12-21T12:38:24Z
2019-12-21T10:40:57Z,42.805,6.029,13.2968,4.59979,2469.974,2019-12-21T12:41:27Z
2019-12-21T10:44:00Z,42.805,6.029,13.2967,4.59985,2469.947,2019-12-21T12:44:31Z
2019-12-21T10:47:03Z,42.805,6.029,13.2964,4.59977,2469.947,2019-12-21T12:47:34Z
2019-12-21T10:50:07Z,42.805,6.029,13.2979,4.59988,2469.923,2019-12-21T12:50:37Z
2019-12-21T10:53:10Z,42.805,6.029,13.2965,4.59976,2469.97,2019-12-21T12:53:40Z
2019-12-21T10:56:13Z,42.805,6.029,13.2967,4.59974,2469.97,2019-12-21T12:56:44Z
2019-12-21T10:59:16Z,42.805,6.029,13.2968,4.59988,2469.984,2019-12-21T12:59:47Z
2019-12-21T11:02:20Z,42.805,6.029,13.2982,4.60012,2469.947,2019-12-21T13:02:50Z
2019-12-21T11:05:23Z,42.805,6.029,13.2976,4.59988,2469.97,2019-12-21T13:05:53Z
2019-12-21T11:08:26Z,42.805,6.029,13.2975,4.59978,2469.984,2019-12-21T13:08:56Z
2019-12-21T11:11:29Z,42.805,6.029,13.2968,4.59994,2469.947,2019-12-21T13:12:00Z
2019-12-21T11:14:32Z,42.805,6.029,13.2978,4.59998,2469.97,2019-12-21T13:15:03Z
2019-12-21T11:17:36Z,42.805,6.029,13.2971,4.59984,2469.984,2019-12-21T13:18:06Z
2019-12-21T11:20:39Z,42.805,6.029,13.2972,4.59980,2469.947,2019-12-21T13:21:09Z
2019-12-21T11:23:42Z,42.805,6.029,13.2969,4.59983,2469.97,2019-12-21T13:24:13Z
2019-12-21T11:26:45Z,42.805,6.029,13.2974,4.59994,2469.984,2019-12-21T13:27:16Z
2019-12-21T11:29:49Z,42.805,6.029,13.2972,4.60011,2469.96,2019-12-21T13:30:19Z
2019-12-21T11:32:52Z,42.805,6.029,13.2969,4.59992,2469.984,2019-12-21T13:33:22Z
2019-12-21T11:35:55Z,42.805,6.029,13.2965,4.59981,2469.947,2019-12-21T13:36:26Z
2019-12-21T11:38:58Z,42.805,6.029,13.2968,4.59992,2469.984,2019-12-21T13:39:29Z
2019-12-21T11:42:02Z,42.805,6.029,13.2968,4.59986,2469.984,2019-12-21T13:42:32Z
2019-12-21T11:45:05Z,42.805,6.029,13.2969,4.59988,2469.97,2019-12-21T13:45:35Z
2019-12-21T11:48:08Z,42.805,6.029,13.2980,4.60001,2469.984,2019-12-21T13:48:39Z
2019-12-21T11:51:11Z,42.805,6.029,13.2974,4.59997,2469.97,2019-12-21T13:51:42Z
2019-12-21T11:54:15Z,42.805,6.029,13.2971,4.59986,2469.97,2019-12-21T13:54:45Z
2019-12-21T11:57:18Z,42.805,6.029,13.2968,4.59979,2469.97,2019-12-21T13:57:48Z
2019-12-21T12:00:21Z,42.805,6.029,13.2965,4.59978,2470.03,2019-12-21T14:00:52Z
2019-12-21T12:03:24Z,42.805,6.029,13.2967,4.59976,2469.97,2019-12-21T14:03:55Z
2019-12-21T12:06:28Z,42.805,6.029,13.2969,4.59984,2469.984,2019-12-21T14:06:58Z
2019-12-21T12:09:31Z,42.805,6.029,13.2970,4.59981,2470.017,2019-12-21T14:10:01Z
2019-12-21T12:12:34Z,42.805,6.029,13.2967,4.60002,2469.993,2019-12-21T14:13:05Z
2019-12-21T12:15:37Z,42.805,6.029,13.2964,4.59975,2470.04,2019-12-21T14:16:08Z
2019-12-21T12:18:41Z,42.805,6.029,13.2971,4.59990,2470.007,2019-12-21T14:19:11Z
2019-12-21T12:21:44Z,42.805,6.029,13.2972,4.59986,2469.993,2019-12-21T14:22:14Z
2019-12-21T12:24:47Z,42.805,6.029,13.2972,4.59986,2470.03,2019-12-21T14:25:18Z
2019-12-21T12:27:50Z,42.805,6.029,13.2976,4.59996,2470.04,2019-12-21T14:28:21Z
2019-12-21T12:30:54Z,42.805,6.029,13.2976,4.60003,2469.993,2019-12-21T14:31:24Z
2019-12-21T12:33:57Z,42.805,6.029,13.2971,4.59996,2470.03,2019-12-21T14:34:27Z
2019-12-21T12:37:00Z,42.805,6.029,13.2973,4.59985,2470.053,2019-12-21T14:37:31Z
2019-12-21T12:40:03Z,42.805,6.029,13.2967,4.59997,2470.03,2019-12-21T14:40:34Z
2019-12-21T12:43:06Z,42.805,6.029,13.2971,4.59994,2470.017,2019-12-21T14:43:37Z
2019-12-21T12:46:10Z,42.805,6.029,13.2974,4.59996,2469.993,2019-12-21T14:46:40Z
2019-12-21T12:49:13Z,42.805,6.029,13.2969,4.59985,2470.053,2019-12-21T14:49:43Z
2019-12-21T12:52:16Z,42.805,6.029,13.2974,4.59988,2470.007,2019-12-21T14:52:47Z
2019-12-21T12:55:19Z,42.805,6.029,13.2974,4.59986,2470.017,2019-12-21T14:55:50Z
2019-12-21T12:58:23Z,42.805,6.029,13.2964,4.59979,2470.007,2019-12-21T14:58:53Z
2019-12-21T13:01:26Z,42.805,6.029,13.2968,4.59981,2470.063,2019-12-21T15:01:56Z
2019-12-21T13:04:29Z,42.805,6.029,13.2967,4.59999,2470.017,2019-12-21T15:05:00Z
2019-12-21T13:07:32Z,42.805,6.029,13.2971,4.59992,2470.03,2019-12-21T15:08:03Z
2019-12-21T13:10:35Z,42.805,6.029,13.2976,4.59999,2470.017,2019-12-21T15:11:06Z
2019-12-21T13:13:39Z,42.805,6.029,13.2979,4.59992,2470.017,2019-12-21T15:14:09Z
2019-12-21T13:16:42Z,42.805,6.029,13.2967,4.59986,2470.017,2019-12-21T15:17:12Z
2019-12-21T13:19:45Z,42.805,6.029,13.2967,4.59979,2470.04,2019-12-21T15:20:16Z
2019-12-21T13:22:48Z,42.805,6.029,13.2968,4.59981,2470.017,2019-12-21T15:23:19Z
2019-12-21T13:25:52Z,42.805,6.029,13.2966,4.59978,2470.053,2019-12-21T15:26:22Z
2019-12-21T13:28:55Z,42.805,6.029,13.2971,4.59986,2470.04,2019-12-21T15:29:25Z
2019-12-21T13:31:58Z,42.805,6.029,13.2968,4.59989,2470.017,2019-12-21T15:32:29Z
2019-12-21T13:35:01Z,42.805,6.029,13.2974,4.59981,2470.077,2019-12-21T15:35:32Z
2019-12-21T13:38:05Z,42.805,6.029,13.2967,4.59978,2470.063,2019-12-21T15:38:35Z
2019-12-21T13:41:08Z,42.805,6.029,13.2969,4.59983,2470.053,2019-12-21T15:41:38Z
2019-12-21T13:44:11Z,42.805,6.029,13.2968,4.59986,2470.053,2019-12-21T15:44:42Z
2019-12-21T13:47:14Z,42.805,6.029,13.2977,4.59991,2470.017,2019-12-21T15:47:45Z
2019-12-21T13:50:18Z,42.805,6.029,13.2967,4.59971,2470.1,2019-12-21T15:50:48Z
2019-12-21T13:53:21Z,42.805,6.029,13.2967,4.59979,2470.04,2019-12-21T15:53:51Z
2019-12-21T13:56:24Z,42.805,6.029,13.2968,4.59978,2470.04,2019-12-21T15:56:55Z
2019-12-21T13:59:27Z,42.805,6.029,13.2969,4.59973,2470.063,2019-12-21T15:59:58Z
2019-12-21T14:02:30Z,42.805,6.029,13.2971,4.59977,2470.053,2019-12-21T16:03:01Z
2019-12-21T14:05:34Z,42.805,6.029,13.2968,4.59976,2470.063,2019-12-21T16:06:04Z
2019-12-21T14:08:37Z,42.805,6.029,13.2967,4.59992,2470.063,2019-12-21T16:09:07Z
2019-12-21T14:11:40Z,42.805,6.029,13.2965,4.59986,2470.053,2019-12-21T16:12:11Z
2019-12-21T14:14:44Z,42.805,6.029,13.2972,4.59985,2470.063,2019-12-21T16:15:14Z
2019-12-21T14:17:47Z,42.805,6.029,13.2967,4.59987,2470.063,2019-12-21T16:18:18Z
2019-12-21T14:20:50Z,42.805,6.029,13.2974,4.60003,2470.063,2019-12-21T16:21:21Z
2019-12-21T14:23:53Z,42.805,6.029,13.2970,4.59991,2470.04,2019-12-21T16:24:24Z
2019-12-21T14:26:57Z,42.805,6.029,13.2971,4.59983,2470.063,2019-12-21T16:27:27Z
2019-12-21T14:30:00Z,42.805,6.029,13.2967,4.59986,2470.077,2019-12-21T16:30:31Z
2019-12-21T14:33:03Z,42.805,6.029,13.2971,4.59983,2470.087,2019-12-21T16:33:34Z
2019-12-21T14:36:07Z,42.805,6.029,13.2971,4.59980,2470.087,2019-12-21T16:36:37Z
2019-12-21T14:39:10Z,42.805,6.029,13.2967,4.59984,2470.04,2019-12-21T16:39:40Z
2019-12-21T14:42:13Z,42.805,6.029,13.2968,4.59986,2470.063,2019-12-21T16:42:44Z
2019-12-21T14:45:16Z,42.805,6.029,13.2967,4.59991,2470.063,2019-12-21T16:45:47Z
2019-12-21T14:48:20Z,42.805,6.029,13.2973,4.59980,2470.053,2019-12-21T16:48:50Z
2019-12-21T14:51:23Z,42.805,6.029,13.2971,4.59986,2470.124,2019-12-21T16:51:53Z
2019-12-21T14:54:26Z,42.805,6.029,13.2964,4.59984,2470.1,2019-12-21T16:54:57Z
2019-12-21T14:57:30Z,42.805,6.029,13.2970,4.59987,2470.077,2019-12-21T16:58:00Z
2019-12-21T15:00:33Z,42.805,6.029,13.2971,4.59988,2470.087,2019-12-21T17:01:04Z
2019-12-21T15:03:36Z,42.805,6.029,13.2971,4.59987,2470.063,2019-12-21T17:04:07Z